Weather History for Gillette, WY

Change the Weather History Date:

Tuesday, January 21, 2014

  Actual Average Record
Temperature  
Mean Temperature 35 °F 26 °F  
Max Temperature 45 °F 37 °F - ()
Min Temperature 25 °F 15 °F - ()
Degree Days  
Heating Degree Days 30 39  
Month to date heating degree days 776 824  
Since 1 July heating degree days 3888 3965  
Cooling Degree Days 0 0  
Month to date cooling degree days 0 0  
Year to date cooling degree days 0 0  
Moisture  
Dew Point 18 °F    
Average Humidity 55    
Maximum Humidity 78    
Minimum Humidity 31    
Precipitation  
Precipitation 0.00 in 0.01 in - ()
Month to date precipitation 0.28 0.22  
Year to date precipitation 0.28 0.22  
Sea Level Pressure  
Sea Level Pressure 30.19 in    
Wind  
Wind Speed 12 mph (WNW)    
Max Wind Speed 23 mph    
Max Gust Speed 29 mph    
Visibility 10 miles    
Events      
T = Trace of Precipitation, MM = Missing Value Source: NWS Daily Summary

Daily Weather History Graph

Daily Weather History Graph

Search for Another Location

Airport:

Trip Planner

Search our weather history database for the weather conditions in past years. The results will help you decide how hot, cold, wet, or windy it might be!

Date:

Astronomy

Jan. 21, 2014 Rise Set
Actual Time 7:30 AM MST 4:56 PM MST
Civil Twilight 6:58 AM MST 5:28 PM MST
Nautical Twilight 6:23 AM MST 6:04 PM MST
Astronomical Twilight 5:48 AM MST 6:38 PM MST
Moon 10:46 PM MST (1/21) 9:48 AM MST (1/21)
Length of Visible Light 10h 29m
Length of Day
9h 26m
Waning Gibbous, 74% of the Moon is Illuminated
Jan 21
Waning Gibbous
Jan 23
Last Quarter
Jan 30
New
Feb 6
First Quarter
Feb 14
Full

Hourly Weather History & Observations

Time (MST) Temp. Windchill Dew Point Humidity Pressure Visibility Wind Dir Wind Speed Gust Speed Precip Events Conditions
12:53 AM 30.0 °F 21.7 °F 14.0 °F 51% 30.22 in 10.0 mi SSW 9.2 mph 16.1 mph N/A   Clear
1:53 AM 30.9 °F 19.8 °F 15.1 °F 52% 30.17 in 10.0 mi SW 16.1 mph - N/A   Clear
2:53 AM 30.9 °F 21.2 °F 15.1 °F 52% 30.18 in 10.0 mi SW 12.7 mph - N/A   Clear
3:53 AM 33.1 °F 22.2 °F 15.1 °F 48% 30.16 in 10.0 mi SW 17.3 mph - N/A   Clear
4:53 AM 34.0 °F 25.5 °F 12.0 °F 40% 30.17 in 10.0 mi West 11.5 mph - N/A   Clear
5:53 AM 32.0 °F 23.0 °F 12.9 °F 45% 30.17 in 10.0 mi West 11.5 mph - N/A   Clear
6:53 AM 34.0 °F 24.2 °F 10.9 °F 38% 30.18 in 10.0 mi West 15.0 mph - N/A   Clear
7:53 AM 33.1 °F 23.4 °F 12.0 °F 42% 30.18 in 10.0 mi West 13.8 mph - N/A   Clear
8:53 AM 39.0 °F 30.6 °F 12.0 °F 33% 30.17 in 10.0 mi WNW 15.0 mph - N/A   Clear
9:53 AM 41.0 °F 33.1 °F 14.0 °F 33% 30.20 in 10.0 mi NW 15.0 mph - N/A   Clear
10:53 AM 44.1 °F 35.9 °F 15.1 °F 31% 30.20 in 10.0 mi NNW 19.6 mph - N/A   Clear
11:53 AM 43.0 °F 34.2 °F 16.0 °F 34% 30.19 in 10.0 mi NNW 20.7 mph 28.8 mph N/A   Clear
12:53 PM 44.1 °F 37.4 °F 18.0 °F 35% 30.17 in 10.0 mi NW 13.8 mph - N/A   Scattered Clouds
1:53 PM 44.1 °F 36.5 °F 19.0 °F 37% 30.16 in 10.0 mi NNW 17.3 mph - N/A   Clear
2:53 PM 39.9 °F 32.1 °F 21.0 °F 47% 30.18 in 10.0 mi NNW 13.8 mph - N/A   Overcast
3:53 PM 39.0 °F 32.3 °F 21.9 °F 50% 30.19 in 10.0 mi NW 10.4 mph - N/A   Overcast
4:53 PM 37.0 °F 30.4 °F 23.0 °F 57% 30.20 in 10.0 mi WNW 9.2 mph - N/A   Overcast
5:53 PM 35.1 °F 28.6 °F 24.1 °F 64% 30.21 in 10.0 mi NW 8.1 mph - N/A   Overcast
6:53 PM 34.0 °F 28.8 °F 25.0 °F 70% 30.22 in 10.0 mi NNW 5.8 mph - N/A   Overcast
7:53 PM 33.1 °F 26.9 °F 25.0 °F 72% 30.22 in 10.0 mi NW 6.9 mph - N/A   Overcast
8:53 PM 32.0 °F 26.4 °F 26.1 °F 79% 30.21 in 10.0 mi North 5.8 mph - N/A   Overcast
9:53 PM 32.0 °F 28.7 °F 26.1 °F 79% 30.20 in 10.0 mi NNW 3.5 mph - N/A   Overcast
10:53 PM 32.0 °F 24.8 °F 25.0 °F 75% 30.19 in 10.0 mi WNW 8.1 mph - N/A   Overcast
11:53 PM 30.9 °F 21.7 °F 23.0 °F 72% 30.21 in 10.0 mi NNW 11.5 mph - N/A   Overcast